STARLINK-32939, 63149

Orbit data source: Space-Track

STARLINK-32939, 63149 is a payload satellite owned by SpaceX/Seattle (US) in LEO that was launched on Mon, 03 Mar 2025 UTC via an FALCON 9 launch vehicle from the Air Force Eastern Test Range (AFETR). Payload-class satellites include a variety of spacecraft equipped with specific instruments for various scientific and technological missions. These include communications satellites like Starlink; space stations such as the ISS; scientific satellites like the Hubble; Earth observation satellites from companies like Planet Labs, Umbra, and HawkEye 360; GPS; miniature CubeSats for education and research; and military/defense satellites.

Loading next visibility...
Identifier
63149, 2025-043T
Orbit
LEO
Country
Flag of USUS
Related business
Manufacturer
SpaceX/Seattle
Mission
Operational Commercial Communications
Bus & Motor
STARLINK V2M, Unknown motor
Mass
730 kg wet, ~700 kg dry
Launch date (UTC)
2025-03-03 (1 year ago)
Launch vehicle
FALCON 9
Launch site
Air Force Eastern Test Range (AFETR)
Object type
Payload
Rocket body
Debris
Shape & HBR
Box + 2 Pan, 17.7 m
Radar Cross Section
33.884 m², Large (>1 m²)

Expand to show TLE details & history
Last TLE update: 20 hours ago

TLE from 20 hours ago
0 STARLINK-32939
1 63149U 25043T   26171.01297469  .00013780  00000-0  50912-3 0  9991
2 63149  43.0054 158.1714 0001955 286.0769  73.9868 15.27594024 73017
Epoch: 2026-06-20T00:18Z
TLE epoch observation values (Epoch: 2026-06-20T00:18:41.013Z)
Latitude
0.00003°
Longitude
-114.73315°
Altitude
482.413 km
Speed
7.626 km/s
True Right ascension
10h 32m 41s
True Declination
0° 00' 00"
Sunlit
Object was in daylight at epoch
Visualization orbit readout
Latitude
Unknown
Longitude
Unknown
Altitude
Unknown
Speed
Unknown
Apparent Right ascension
Unknown
Apparent Declination
Unknown
Sunlit
N/A
Visualization observer readout
Local Sidereal Time
07:18:36
Azimuth
Unknown
Elevation
Unknown
Doppler factor
Unknown
Orbital elements
Apogee altitude
486.293 km
Perigee altitude
483.61 km
Semi-major axis
6,863.088 km
Eccentricity
0.0002
Inclination
43.0054°
RAAN
158.1714°
Arg. of periapsis
286.0769°
True anomaly
74.00833°
Mean anomaly
73.9868°
Eccentric anomaly
73.99757°
Mean motion
3.81737 °/min
Orbital period
94.31 mins
BSTAR
0.00050912
Loading maneuver chart data...
Computing Atmospheric mass density...
Loading historical data...
Loading historical data...
Loading historical data...
Loading historical data...
Loading historical data...
Loading historical data...
Loading historical data...

Documentation

Showing up to 5 results
|